Time,TemperatureF,DewpointF,PressureIn,WindDirection,WindDirectionDegrees,WindSpeedMPH,WindSpeedGustMPH,Humidity,HourlyPrecipIn,Conditions,Clouds,dailyrainin,SoftwareType,DateUTC
2013-04-14 00:03:00,53.0,42.0,30.05,WNW,302,0.0,0.0,65,0.00,,,0.00,,2013-04-14 04:03:00,
2013-04-14 00:13:00,53.0,42.0,30.05,WNW,302,0.0,0.0,65,0.00,,,0.00,,2013-04-14 04:13:00,
2013-04-14 00:23:00,53.0,43.0,30.06,WNW,302,0.0,0.0,68,0.00,,,0.00,,2013-04-14 04:23:00,
2013-04-14 00:33:00,53.0,41.0,30.06,WNW,302,0.0,0.0,63,0.00,,,0.00,,2013-04-14 04:33:00,
2013-04-14 00:43:00,53.0,41.0,30.06,WNW,302,0.0,0.0,63,0.00,,,0.00,,2013-04-14 04:43:00,
2013-04-14 00:52:00,52.0,43.0,30.06,WNW,302,0.0,0.0,70,0.00,,,0.00,,2013-04-14 04:52:00,
2013-04-14 01:03:00,51.0,42.0,30.06,WNW,302,0.0,0.0,71,0.00,,,0.00,,2013-04-14 05:03:00,
2013-04-14 01:12:00,51.0,42.0,30.06,WNW,302,0.0,0.0,71,0.00,,,0.00,,2013-04-14 05:12:00,
2013-04-14 01:22:00,51.0,42.0,30.06,WNW,302,0.0,0.0,72,0.00,,,0.00,,2013-04-14 05:22:00,
2013-04-14 01:32:00,50.0,42.0,30.06,WNW,302,0.0,0.0,74,0.00,,,0.00,,2013-04-14 05:32:00,
2013-04-14 01:42:00,50.0,42.0,30.06,WNW,302,0.0,0.0,74,0.00,,,0.00,,2013-04-14 05:42:00,
2013-04-14 01:52:00,50.0,42.0,30.06,WNW,302,0.0,0.0,74,0.00,,,0.00,,2013-04-14 05:52:00,
2013-04-14 02:02:00,49.0,41.0,30.06,WNW,302,0.0,0.0,74,0.00,,,0.00,,2013-04-14 06:02:00,
2013-04-14 02:12:00,49.0,41.0,30.06,WNW,302,0.0,0.0,74,0.00,,,0.00,,2013-04-14 06:12:00,
2013-04-14 02:22:00,49.0,41.0,30.06,WNW,302,0.0,0.0,73,0.00,,,0.00,,2013-04-14 06:22:00,
2013-04-14 02:32:00,48.0,43.0,30.04,WNW,302,0.0,0.0,82,0.00,,,0.00,,2013-04-14 06:32:00,
2013-04-14 02:42:00,48.0,43.0,30.04,WNW,302,0.0,0.0,82,0.00,,,0.00,,2013-04-14 06:42:00,
2013-04-14 02:52:00,47.0,42.0,30.04,WNW,302,0.0,0.0,82,0.00,,,0.00,,2013-04-14 06:52:00,
2013-04-14 03:03:00,47.0,41.0,30.04,WNW,302,0.0,0.0,81,0.00,,,0.00,,2013-04-14 07:03:00,
2013-04-14 03:12:00,47.0,41.0,30.04,WNW,302,0.0,0.0,81,0.00,,,0.00,,2013-04-14 07:12:00,
2013-04-14 03:22:00,47.0,42.0,30.03,WNW,302,0.0,0.0,82,0.00,,,0.00,,2013-04-14 07:22:00,
2013-04-14 03:32:00,46.0,42.0,30.03,WNW,302,0.0,0.0,86,0.00,,,0.00,,2013-04-14 07:32:00,
2013-04-14 03:42:00,46.0,42.0,30.03,WNW,302,0.0,0.0,86,0.00,,,0.00,,2013-04-14 07:42:00,
2013-04-14 03:52:00,46.0,43.0,30.02,WNW,302,0.0,0.0,88,0.00,,,0.00,,2013-04-14 07:52:00,
2013-04-14 04:02:00,46.0,42.0,30.02,WNW,302,0.0,0.0,87,0.00,,,0.00,,2013-04-14 08:02:00,
2013-04-14 04:12:00,46.0,42.0,30.02,WNW,302,0.0,0.0,87,0.00,,,0.00,,2013-04-14 08:12:00,
2013-04-14 04:22:00,45.0,42.0,30.01,WNW,302,0.0,0.0,89,0.00,,,0.00,,2013-04-14 08:22:00,
2013-04-14 04:32:00,44.0,41.0,30.01,WNW,302,0.0,0.0,90,0.00,,,0.00,,2013-04-14 08:32:00,
2013-04-14 04:42:00,44.0,41.0,30.01,WNW,302,0.0,0.0,90,0.00,,,0.00,,2013-04-14 08:42:00,
2013-04-14 04:52:00,44.0,41.0,30.01,WNW,302,0.0,0.0,90,0.00,,,0.00,,2013-04-14 08:52:00,
2013-04-14 05:03:00,44.0,42.0,30.02,WNW,302,0.0,0.0,91,0.00,,,0.00,,2013-04-14 09:03:00,
2013-04-14 05:12:00,44.0,42.0,30.02,WNW,302,0.0,0.0,91,0.00,,,0.00,,2013-04-14 09:12:00,
2013-04-14 05:22:00,44.0,42.0,30.02,WNW,302,0.0,0.0,91,0.00,,,0.00,,2013-04-14 09:22:00,
2013-04-14 05:33:00,44.0,42.0,30.02,WNW,302,0.0,0.0,91,0.00,,,0.00,,2013-04-14 09:33:00,
2013-04-14 05:43:00,44.0,42.0,30.02,WNW,302,0.0,0.0,91,0.00,,,0.00,,2013-04-14 09:43:00,
2013-04-14 05:54:00,44.0,42.0,30.01,WNW,302,0.0,0.0,91,0.00,,,0.00,,2013-04-14 09:54:00,
2013-04-14 06:03:00,44.0,42.0,30.01,WNW,302,0.0,0.0,91,0.00,,,0.00,,2013-04-14 10:03:00,
2013-04-14 06:12:00,44.0,42.0,30.01,WNW,302,0.0,0.0,91,0.00,,,0.00,,2013-04-14 10:12:00,
2013-04-14 06:23:00,43.0,41.0,30.01,WNW,302,0.0,0.0,92,0.00,,,0.00,,2013-04-14 10:23:00,
2013-04-14 06:33:00,43.0,41.0,30.02,WNW,302,0.0,0.0,92,0.00,,,0.00,,2013-04-14 10:33:00,
2013-04-14 06:42:00,43.0,41.0,30.02,WNW,302,0.0,0.0,92,0.00,,,0.00,,2013-04-14 10:42:00,
2013-04-14 06:52:00,44.0,42.0,30.03,WNW,302,0.0,1.0,92,0.00,,,0.00,,2013-04-14 10:52:00,
2013-04-14 07:02:00,44.0,42.0,30.03,WNW,302,0.0,0.0,92,0.00,,,0.00,,2013-04-14 11:02:00,
2013-04-14 07:12:00,44.0,42.0,30.03,WNW,302,0.0,0.0,92,0.00,,,0.00,,2013-04-14 11:12:00,
2013-04-14 07:23:00,44.0,42.0,30.04,WNW,302,0.0,0.0,93,0.00,,,0.00,,2013-04-14 11:23:00,
2013-04-14 07:32:00,45.0,43.0,30.04,WNW,302,0.0,0.0,92,0.00,,,0.00,,2013-04-14 11:32:00,
2013-04-14 07:42:00,45.0,43.0,30.04,WNW,302,0.0,0.0,92,0.00,,,0.00,,2013-04-14 11:42:00,
2013-04-14 07:53:00,45.0,43.0,30.04,WNW,302,0.0,0.0,91,0.00,,,0.00,,2013-04-14 11:53:00,
2013-04-14 08:02:00,45.0,43.0,30.04,WNW,302,0.0,0.0,91,0.00,,,0.00,,2013-04-14 12:02:00,
2013-04-14 08:12:00,45.0,43.0,30.04,WNW,302,0.0,0.0,91,0.00,,,0.00,,2013-04-14 12:12:00,
2013-04-14 08:22:00,46.0,44.0,30.03,WNW,302,0.0,0.0,91,0.00,,,0.00,,2013-04-14 12:22:00,
2013-04-14 08:32:00,46.0,43.0,30.03,SE,132,0.0,0.0,90,0.00,,,0.00,,2013-04-14 12:32:00,
2013-04-14 08:42:00,46.0,43.0,30.03,SE,132,0.0,0.0,90,0.00,,,0.00,,2013-04-14 12:42:00,
2013-04-14 08:52:00,48.0,45.0,30.04,SE,132,0.0,0.0,89,0.00,,,0.00,,2013-04-14 12:52:00,
2013-04-14 09:02:00,49.0,44.0,30.04,SE,132,0.0,0.0,84,0.00,,,0.00,,2013-04-14 13:02:00,
2013-04-14 09:12:00,49.0,44.0,30.04,SE,132,0.0,0.0,84,0.00,,,0.00,,2013-04-14 13:12:00,
2013-04-14 09:22:00,50.0,45.0,30.03,SE,132,0.0,1.0,83,0.00,,,0.00,,2013-04-14 13:22:00,
2013-04-14 09:32:00,51.0,45.0,30.03,SE,132,0.0,1.0,81,0.00,,,0.00,,2013-04-14 13:32:00,
2013-04-14 09:42:00,51.0,45.0,30.03,SE,132,0.0,1.0,81,0.00,,,0.00,,2013-04-14 13:42:00,
2013-04-14 09:52:00,52.0,44.0,30.02,SE,132,0.0,0.0,74,0.00,,,0.00,,2013-04-14 13:52:00,
2013-04-14 10:02:00,52.0,45.0,30.02,SE,132,0.0,1.0,78,0.00,,,0.00,,2013-04-14 14:02:00,
2013-04-14 10:12:00,53.0,45.0,30.03,SE,132,0.0,1.0,75,0.00,,,0.00,,2013-04-14 14:12:00,
2013-04-14 10:22:00,53.0,45.0,30.03,SE,132,0.0,1.0,75,0.00,,,0.00,,2013-04-14 14:22:00,
2013-04-14 10:32:00,55.0,45.0,30.02,SE,132,0.0,1.0,69,0.00,,,0.00,,2013-04-14 14:32:00,
2013-04-14 10:42:00,55.0,45.0,30.02,SE,132,0.0,1.0,69,0.00,,,0.00,,2013-04-14 14:42:00,
2013-04-14 10:53:00,56.0,44.0,30.02,SSE,157,0.0,1.0,65,0.00,,,0.00,,2013-04-14 14:53:00,
2013-04-14 11:02:00,58.0,47.0,30.01,SSE,157,0.0,1.0,66,0.00,,,0.00,,2013-04-14 15:02:00,
2013-04-14 11:12:00,58.0,47.0,30.01,SSE,157,0.0,1.0,66,0.00,,,0.00,,2013-04-14 15:12:00,
2013-04-14 11:22:00,58.0,47.0,30.01,SSE,157,0.0,1.0,67,0.00,,,0.00,,2013-04-14 15:22:00,
2013-04-14 11:33:00,60.0,46.0,30.01,SSE,157,0.0,1.0,60,0.00,,,0.00,,2013-04-14 15:33:00,
2013-04-14 11:43:00,60.0,46.0,30.01,SSE,157,0.0,1.0,60,0.00,,,0.00,,2013-04-14 15:43:00,
2013-04-14 11:53:00,61.0,48.0,30.02,WSW,241,1.0,3.0,63,0.00,,,0.00,,2013-04-14 15:53:00,
2013-04-14 12:04:00,61.0,46.0,30.02,WSW,242,1.0,2.0,58,0.00,,,0.00,,2013-04-14 16:04:00,
2013-04-14 12:13:00,61.0,46.0,30.02,WSW,242,1.0,2.0,58,0.00,,,0.00,,2013-04-14 16:13:00,
2013-04-14 12:23:00,62.0,47.0,30.03,WSW,257,0.0,3.0,58,0.00,,,0.00,,2013-04-14 16:23:00,
2013-04-14 12:33:00,63.0,48.0,30.03,WSW,250,0.0,3.0,57,0.00,,,0.00,,2013-04-14 16:33:00,
2013-04-14 12:43:00,63.0,48.0,30.03,WSW,250,0.0,3.0,57,0.00,,,0.00,,2013-04-14 16:43:00,
2013-04-14 12:53:00,62.0,47.0,30.03,WNW,291,1.0,3.0,59,0.00,,,0.00,,2013-04-14 16:53:00,
2013-04-14 13:02:00,62.0,47.0,30.02,West,279,0.0,2.0,58,0.00,,,0.00,,2013-04-14 17:02:00,
2013-04-14 13:13:00,62.0,47.0,30.02,West,279,0.0,2.0,58,0.00,,,0.00,,2013-04-14 17:13:00,
2013-04-14 13:22:00,62.0,47.0,30.01,West,279,0.0,2.0,58,0.00,,,0.00,,2013-04-14 17:22:00,
2013-04-14 13:33:00,62.0,47.0,30.01,West,279,0.0,0.0,57,0.00,,,0.00,,2013-04-14 17:33:00,
2013-04-14 13:42:00,62.0,47.0,30.01,West,279,0.0,0.0,57,0.00,,,0.00,,2013-04-14 17:42:00,
2013-04-14 13:53:00,62.0,50.0,30.01,West,279,0.0,0.0,65,0.00,,,0.00,,2013-04-14 17:53:00,
2013-04-14 14:02:00,62.0,48.0,30.01,West,279,0.0,2.0,61,0.00,,,0.00,,2013-04-14 18:02:00,
2013-04-14 14:12:00,62.0,48.0,30.01,West,279,0.0,2.0,61,0.00,,,0.00,,2013-04-14 18:12:00,
2013-04-14 14:22:00,63.0,48.0,30.01,West,279,0.0,1.0,57,0.00,,,0.00,,2013-04-14 18:22:00,
2013-04-14 14:32:00,63.0,46.0,30.01,WSW,240,1.0,2.0,53,0.00,,,0.00,,2013-04-14 18:32:00,
2013-04-14 14:43:00,63.0,46.0,30.01,WSW,240,1.0,2.0,53,0.00,,,0.00,,2013-04-14 18:43:00,
2013-04-14 14:53:00,65.0,45.0,30.01,SW,214,1.0,3.0,48,0.00,,,0.00,,2013-04-14 18:53:00,
2013-04-14 15:03:00,65.0,46.0,30.02,SW,217,3.0,8.0,51,0.00,,,0.00,,2013-04-14 19:03:00,
2013-04-14 15:12:00,65.0,46.0,30.02,SW,217,3.0,8.0,51,0.00,,,0.00,,2013-04-14 19:12:00,
2013-04-14 15:22:00,64.0,48.0,30.02,SSE,159,1.0,6.0,56,0.00,,,0.00,,2013-04-14 19:22:00,
2013-04-14 15:32:00,62.0,51.0,30.03,South,171,1.0,4.0,68,0.00,,,0.00,,2013-04-14 19:32:00,
2013-04-14 15:42:00,62.0,51.0,30.03,South,171,1.0,4.0,68,0.00,,,0.00,,2013-04-14 19:42:00,
2013-04-14 15:53:00,59.0,53.0,30.03,NW,318,1.0,3.0,80,0.01,,,0.01,,2013-04-14 19:53:00,
2013-04-14 16:03:00,58.0,54.0,30.02,SE,145,0.0,3.0,86,0.02,,,0.02,,2013-04-14 20:03:00,
2013-04-14 16:13:00,58.0,54.0,30.02,SE,145,0.0,3.0,86,0.02,,,0.02,,2013-04-14 20:13:00,
2013-04-14 16:22:00,57.0,53.0,30.02,SSE,148,0.0,1.0,88,0.04,,,0.04,,2013-04-14 20:22:00,
2013-04-14 16:33:00,57.0,54.0,30.01,WNW,295,0.0,2.0,90,0.05,,,0.05,,2013-04-14 20:33:00,
2013-04-14 16:43:00,57.0,54.0,30.01,WNW,295,0.0,2.0,90,0.05,,,0.05,,2013-04-14 20:43:00,
2013-04-14 16:52:00,57.0,55.0,29.99,WSW,244,0.0,1.0,92,0.06,,,0.07,,2013-04-14 20:52:00,
2013-04-14 17:02:00,57.0,55.0,29.98,WSW,244,0.0,0.0,92,0.05,,,0.07,,2013-04-14 21:02:00,
2013-04-14 17:12:00,57.0,55.0,29.98,WSW,244,0.0,0.0,92,0.05,,,0.07,,2013-04-14 21:12:00,
2013-04-14 17:23:00,57.0,55.0,29.97,WSW,244,0.0,0.0,92,0.04,,,0.08,,2013-04-14 21:23:00,
2013-04-14 17:33:00,57.0,54.0,29.96,WSW,244,0.0,0.0,91,0.03,,,0.08,,2013-04-14 21:33:00,
2013-04-14 17:43:00,57.0,54.0,29.96,WSW,244,0.0,0.0,91,0.03,,,0.08,,2013-04-14 21:43:00,
2013-04-14 17:53:00,57.0,55.0,29.96,West,259,0.0,2.0,92,0.01,,,0.08,,2013-04-14 21:53:00,
2013-04-14 18:03:00,57.0,54.0,29.96,West,259,0.0,1.0,91,0.01,,,0.08,,2013-04-14 22:03:00,
2013-04-14 18:13:00,57.0,54.0,29.96,West,259,0.0,1.0,91,0.01,,,0.08,,2013-04-14 22:13:00,
2013-04-14 18:23:00,57.0,55.0,29.95,West,259,0.0,0.0,93,0.00,,,0.08,,2013-04-14 22:23:00,
2013-04-14 18:33:00,57.0,55.0,29.94,West,259,0.0,0.0,93,0.00,,,0.08,,2013-04-14 22:33:00,
2013-04-14 18:44:00,57.0,55.0,29.94,West,259,0.0,0.0,93,0.00,,,0.08,,2013-04-14 22:44:00,
2013-04-14 18:53:00,57.0,55.0,29.96,West,259,0.0,0.0,94,0.00,,,0.08,,2013-04-14 22:53:00,
2013-04-14 19:02:00,57.0,55.0,29.96,West,259,0.0,0.0,94,0.00,,,0.08,,2013-04-14 23:02:00,
2013-04-14 19:12:00,57.0,55.0,29.96,West,259,0.0,0.0,94,0.00,,,0.08,,2013-04-14 23:12:00,
2013-04-14 19:23:00,57.0,55.0,29.96,West,259,0.0,0.0,94,0.00,,,0.08,,2013-04-14 23:23:00,
2013-04-14 19:33:00,56.0,54.0,29.96,West,259,0.0,0.0,94,0.00,,,0.08,,2013-04-14 23:33:00,
2013-04-14 19:43:00,56.0,54.0,29.96,West,259,0.0,0.0,94,0.00,,,0.08,,2013-04-14 23:43:00,
2013-04-14 19:53:00,56.0,54.0,29.95,West,259,0.0,0.0,94,0.00,,,0.08,,2013-04-14 23:53:00,
2013-04-14 20:02:00,56.0,54.0,29.96,West,259,0.0,0.0,94,0.00,,,0.08,,2013-04-15 00:02:00,
2013-04-14 20:12:00,56.0,54.0,29.96,West,259,0.0,0.0,94,0.00,,,0.08,,2013-04-15 00:12:00,
2013-04-14 20:23:00,56.0,54.0,29.96,West,259,0.0,1.0,94,0.00,,,0.08,,2013-04-15 00:23:00,
2013-04-14 20:33:00,56.0,55.0,29.98,West,259,0.0,0.0,95,0.00,,,0.08,,2013-04-15 00:33:00,
2013-04-14 20:42:00,56.0,55.0,29.97,West,259,0.0,0.0,95,0.01,,,0.09,,2013-04-15 00:42:00,
2013-04-14 20:52:00,56.0,55.0,29.97,West,259,0.0,0.0,95,0.01,,,0.09,,2013-04-15 00:52:00,
2013-04-14 21:02:00,55.0,54.0,29.96,West,259,0.0,0.0,95,0.01,,,0.09,,2013-04-15 01:02:00,
2013-04-14 21:12:00,55.0,54.0,29.96,West,259,0.0,0.0,95,0.01,,,0.09,,2013-04-15 01:12:00,
2013-04-14 21:23:00,55.0,54.0,29.95,West,259,0.0,0.0,95,0.01,,,0.09,,2013-04-15 01:23:00,
2013-04-14 21:32:00,55.0,54.0,29.95,West,259,0.0,0.0,95,0.01,,,0.09,,2013-04-15 01:32:00,
2013-04-14 21:42:00,55.0,54.0,29.95,West,259,0.0,0.0,95,0.01,,,0.09,,2013-04-15 01:42:00,
2013-04-14 21:52:00,54.0,53.0,29.96,West,259,0.0,0.0,95,0.00,,,0.09,,2013-04-15 01:52:00,
2013-04-14 22:03:00,54.0,52.0,29.96,West,259,0.0,0.0,94,0.00,,,0.09,,2013-04-15 02:03:00,
2013-04-14 22:12:00,54.0,52.0,29.96,West,259,0.0,0.0,94,0.00,,,0.09,,2013-04-15 02:12:00,
2013-04-14 22:22:00,55.0,53.0,29.97,West,259,0.0,0.0,94,0.00,,,0.09,,2013-04-15 02:22:00,
2013-04-14 22:32:00,55.0,53.0,29.96,West,259,0.0,0.0,94,0.00,,,0.09,,2013-04-15 02:32:00,
2013-04-14 22:42:00,55.0,53.0,29.96,West,259,0.0,0.0,94,0.00,,,0.09,,2013-04-15 02:42:00,
2013-04-14 22:53:00,55.0,53.0,29.96,West,259,0.0,0.0,94,0.00,,,0.09,,2013-04-15 02:53:00,
2013-04-14 23:03:00,55.0,53.0,29.95,West,259,0.0,0.0,94,0.00,,,0.09,,2013-04-15 03:03:00,
2013-04-14 23:12:00,55.0,53.0,29.95,West,259,0.0,0.0,94,0.00,,,0.09,,2013-04-15 03:12:00,
2013-04-14 23:22:00,55.0,53.0,29.95,West,259,0.0,0.0,93,0.00,,,0.09,,2013-04-15 03:22:00,
2013-04-14 23:33:00,55.0,53.0,29.95,West,259,0.0,0.0,93,0.00,,,0.09,,2013-04-15 03:33:00,
2013-04-14 23:43:00,55.0,53.0,29.95,West,259,0.0,0.0,93,0.00,,,0.09,,2013-04-15 03:43:00,
2013-04-14 23:55:00,55.0,53.0,29.95,West,259,0.0,0.0,93,0.00,,,0.09,,2013-04-15 03:55:00,